Location: Bon Acre
(42.6442°N, 73.5758°W)
Time: 03:18:05
(UTC+00:00)

SL-08 R/B - Pass Details

Date: 19 March 2026
Orbit: 946 x 992 km, 83.0° (Epoch: 13 April)

Event Time Altitude Azimuth Distance (km) Brightness Sun altitude
Exits shadow 00:23:56 16° 137° (SE) 2,268 5.9 -15.3°
Maximum altitude 00:27:50 30° 86° (E) 1,618 5.1 -16.0°
Drops below altitude 10° 00:33:01 10° 28° (NNE) 2,674 6.7 -16.9°
Sets 00:35:47 0° 18° (NNE) 3,625 7.5 -17.4°
